Find GalileoSat-13

NORAD ID: 41550 Int'l Des: 2016-030 Owner: GSAEU Country: I-EU Constellation: Galileo operational
MEOCIRCULAR

实时位置

正在加载3D地球...

关于 GalileoSat-13

正在加载描述...

即将过境

Passes for default location (London). Set your location on the main map for personalized predictions.

高度历史

Loading altitude history...

两行轨道根数

1 41550U 16030B 26104.70260176 -.00000004 00000-0 00000+0 0 9991
2 41550 55.1161 223.4380 0002408 219.9994 139.9539 1.70474027 61586
Epoch: Apr 14, 2026 • Age: 74 hours

当前状态

高度 23233.3 km
速度 3.67 km/s
星下点 53.81°N, 162.3°W
发射日期 May 24, 2016
运行时间 9.8 years
类型 navigation

技术详情

分类 Payload
质量 733.00 kg
干质量 660.00 kg
总质量 733.00 kg
长度 2.70 m
直径 1.60 m
跨度 14.50 m
形状 Box+2 pan
制造商 OHB
平台类型 GalileoSat
阶段状态 In Orbit
所有者/国家 GSAEU/I-EU

Most Searched